TimeMST,TemperatureF,Dew PointF,Humidity,Sea Level PressureIn,VisibilityMPH,Wind Direction,Wind SpeedMPH,Gust SpeedMPH,PrecipitationIn,Events,Conditions,WindDirDegrees,DateUTC
12:53 AM,37.9,16.0,41,29.60,10.0,West,26.5,36.8,N/A,,Clear,280,2012-12-18 07:53:00
1:53 AM,39.0,14.0,36,29.63,10.0,West,26.5,35.7,N/A,,Partly Cloudy,280,2012-12-18 08:53:00
2:53 AM,37.9,12.9,36,29.65,10.0,WNW,24.2,31.1,N/A,,Clear,290,2012-12-18 09:53:00
3:53 AM,37.9,12.0,35,29.63,10.0,WNW,23.0,33.4,N/A,,Clear,290,2012-12-18 10:53:00
4:53 AM,37.0,16.0,42,29.67,10.0,West,24.2,32.2,N/A,,Clear,280,2012-12-18 11:53:00
5:53 AM,36.0,15.1,43,29.73,10.0,WNW,23.0,29.9,N/A,,Clear,290,2012-12-18 12:53:00
6:53 AM,30.9,14.0,50,29.77,10.0,WNW,11.5,-,N/A,,Partly Cloudy,290,2012-12-18 13:53:00
7:53 AM,32.0,15.1,50,29.78,10.0,West,16.1,-,N/A,,Clear,280,2012-12-18 14:53:00
8:53 AM,37.0,12.9,37,29.78,10.0,WNW,19.6,-,N/A,,Scattered Clouds,290,2012-12-18 15:53:00
9:53 AM,39.9,10.0,29,29.79,10.0,WNW,20.7,29.9,N/A,,Mostly Cloudy,290,2012-12-18 16:53:00
10:53 AM,39.9,9.0,28,29.77,10.0,NW,19.6,25.3,N/A,,Scattered Clouds,310,2012-12-18 17:53:00
11:53 AM,43.0,-0.0,17,29.74,10.0,NW,21.9,-,N/A,,Overcast,320,2012-12-18 18:53:00
12:53 PM,46.0,-9.0,10,29.68,10.0,NW,21.9,29.9,N/A,,Partly Cloudy,310,2012-12-18 19:53:00
1:53 PM,45.0,-7.1,11,29.68,10.0,NW,18.4,27.6,N/A,,Overcast,320,2012-12-18 20:53:00
2:53 PM,44.1,-6.0,12,29.70,10.0,NW,16.1,23.0,N/A,,Overcast,320,2012-12-18 21:53:00
3:53 PM,41.0,-4.0,15,29.73,10.0,NNW,6.9,-,N/A,,Overcast,330,2012-12-18 22:53:00
4:53 PM,36.0,-0.9,21,29.75,10.0,Calm,Calm,-,N/A,,Overcast,0,2012-12-18 23:53:00
5:53 PM,34.0,3.9,28,29.76,10.0,NE,6.9,-,N/A,,Overcast,50,2012-12-19 00:53:00
6:53 PM,35.1,3.0,26,29.79,10.0,NE,9.2,-,N/A,,Overcast,40,2012-12-19 01:53:00
7:53 PM,33.1,3.0,28,29.80,10.0,ENE,5.8,-,N/A,,Overcast,60,2012-12-19 02:53:00
8:53 PM,33.1,3.9,29,29.79,10.0,NNW,10.4,-,N/A,,Overcast,340,2012-12-19 03:53:00
9:53 PM,30.9,7.0,37,29.77,10.0,North,8.1,-,N/A,,Overcast,350,2012-12-19 04:53:00
10:53 PM,30.9,8.1,38,29.78,10.0,North,10.4,-,N/A,,Overcast,10,2012-12-19 05:53:00
11:53 PM,30.0,5.0,35,29.75,10.0,NNE,10.4,-,N/A,,Overcast,30,2012-12-19 06:53:00